Weather History for Bend, OR

Change the Weather History Date:

Sunday, March 17, 2013

  Actual Average (KRDM) Record (KRDM)
Temperature  
Mean Temperature 32 °F 40 °F  
Max Temperature 41 °F 54 °F 75 °F (1972)
Min Temperature 23 °F 26 °F 9 °F (1971)
Degree Days  
Heating Degree Days 33 25  
Month to date heating degree days 446  
Since 1 July heating degree days 5119  
Cooling Degree Days 0 0  
Month to date cooling degree days 0  
Year to date cooling degree days 0  
Moisture  
Dew Point 11 °F    
Average Humidity 45    
Maximum Humidity 80    
Minimum Humidity 18    
Precipitation  
Precipitation 0.00 in 0.02 in 0.24 in (1993)
Month to date precipitation 0.35  
Year to date precipitation 1.97  
Sea Level Pressure  
Sea Level Pressure 30.10 in    
Wind  
Wind Speed 5 mph (NNE)    
Max Wind Speed 21 mph    
Max Gust Speed 26 mph    
Visibility 10 miles    
Events      
T = Trace of Precipitation, MM = Missing Value Source: NWS Daily Summary

Daily Weather History Graph

Daily Weather History Graph

Search for Another Location

Airport:

Trip Planner

Search our weather history database for the weather conditions in past years. The results will help you decide how hot, cold, wet, or windy it might be!

Date:

Astronomy

Mar. 17, 2013 Rise Set
Actual Time 7:12 AM PDT 7:13 PM PDT
Civil Twilight 6:44 AM PDT 7:42 PM PDT
Nautical Twilight 6:10 AM PDT 8:16 PM PDT
Astronomical Twilight 5:36 AM PDT 8:50 PM PDT
Moon 10:17 AM PDT (3/17) 12:37 AM PDT (3/17)
Length of Visible Light 12h 58m
Length of Day
12h 01m
Waxing Crescent, 32% of the Moon is Illuminated
Mar 17
Waxing Crescent
Mar 19
First Quarter
Mar 27
Full
Apr 2
Last Quarter
Apr 10
New

Hourly Weather History & Observations

Time (PDT) Temp. Windchill Dew Point Humidity Pressure Visibility Wind Dir Wind Speed Gust Speed Precip Events Conditions
12:15 AM 30.2 °F 25.4 °F 24.8 °F 80% 30.00 in 10.0 mi ESE 4.6 mph - N/A   Mostly Cloudy
12:35 AM 32.0 °F 27.5 °F 24.8 °F 75% 30.00 in 10.0 mi ESE 4.6 mph - N/A   Mostly Cloudy
12:55 AM 32.0 °F 27.5 °F 24.8 °F 75% 30.00 in 10.0 mi ENE 4.6 mph - N/A   Mostly Cloudy
1:15 AM 32.0 °F 25.6 °F 23.0 °F 69% 30.01 in 10.0 mi NE 6.9 mph - N/A   Mostly Cloudy
1:35 AM 32.0 °F 25.6 °F 23.0 °F 69% 30.01 in 10.0 mi North 6.9 mph - N/A   Mostly Cloudy
1:55 AM 32.0 °F 26.4 °F 21.2 °F 64% 30.00 in 10.0 mi North 5.8 mph - N/A   Overcast
2:15 AM 32.0 °F 25.6 °F 21.2 °F 64% 30.01 in 10.0 mi NE 6.9 mph - N/A   Overcast
2:35 AM 30.2 °F 25.4 °F 19.4 °F 64% 30.02 in 10.0 mi NE 4.6 mph - N/A   Overcast
2:55 AM 30.2 °F 24.3 °F 19.4 °F 64% 30.03 in 10.0 mi NNE 5.8 mph - N/A   Overcast
3:15 AM 30.2 °F 24.3 °F 17.6 °F 60% 30.03 in 10.0 mi NNE 5.8 mph - N/A   Overcast
3:35 AM 30.2 °F 23.4 °F 17.6 °F 60% 30.04 in 10.0 mi North 6.9 mph - N/A   Overcast
3:55 AM 30.2 °F 24.3 °F 17.6 °F 60% 30.04 in 10.0 mi North 5.8 mph - N/A   Mostly Cloudy
4:15 AM 28.4 °F - 17.6 °F 64% 30.04 in 10.0 mi Calm Calm - N/A   Overcast
4:55 AM 28.4 °F 24.6 °F 15.8 °F 59% 30.05 in 10.0 mi ESE 3.5 mph - N/A   Scattered Clouds
5:15 AM 26.6 °F 19.1 °F 15.8 °F 64% 30.06 in 10.0 mi East 6.9 mph - N/A   Clear
5:35 AM 26.6 °F - 15.8 °F 64% 30.07 in 10.0 mi Calm Calm - N/A   Clear
5:55 AM 24.8 °F - 15.8 °F 69% 30.07 in 10.0 mi Calm Calm - N/A   Clear
6:15 AM 24.8 °F 17.9 °F 15.8 °F 69% 30.07 in 10.0 mi East 5.8 mph - N/A   Clear
6:35 AM 24.8 °F 16.1 °F 14.0 °F 64% 30.09 in 10.0 mi ENE 8.1 mph - N/A   Clear
6:55 AM 26.6 °F 22.6 °F 14.0 °F 59% 30.10 in 10.0 mi NE 3.5 mph - N/A   Partly Cloudy
7:15 AM 26.6 °F 19.1 °F 12.2 °F 55% 30.11 in 10.0 mi North 6.9 mph - N/A   Mostly Cloudy
7:35 AM 26.6 °F 19.1 °F 14.0 °F 59% 30.12 in 10.0 mi NNW 6.9 mph - N/A   Overcast
7:55 AM 26.6 °F - 14.0 °F 59% 30.13 in 10.0 mi Calm Calm - N/A   Scattered Clouds
8:15 AM 28.4 °F 24.6 °F 12.2 °F 51% 30.13 in 10.0 mi North 3.5 mph - N/A   Clear
8:35 AM 30.2 °F - 14.0 °F 51% 30.14 in 10.0 mi Calm Calm - N/A   Clear
8:55 AM 30.2 °F - 12.2 °F 47% 30.14 in 10.0 mi Calm Calm - N/A   Clear
9:15 AM 30.2 °F - 10.4 °F 44% 30.14 in 10.0 mi Calm Calm - N/A   Clear
9:35 AM 32.0 °F 27.5 °F 8.6 °F 38% 30.14 in 10.0 mi East 4.6 mph - N/A   Clear
9:55 AM 32.0 °F 28.7 °F 6.8 °F 35% 30.15 in 10.0 mi East 3.5 mph - N/A   Clear
10:15 AM 32.0 °F 26.4 °F 8.6 °F 38% 30.15 in 10.0 mi ENE 5.8 mph - N/A   Clear
10:35 AM 32.0 °F 25.6 °F 6.8 °F 35% 30.16 in 10.0 mi NE 6.9 mph - N/A   Clear
10:55 AM 32.0 °F 26.4 °F 5.0 °F 32% 30.16 in 10.0 mi NE 5.8 mph - N/A   Clear
11:15 AM 33.8 °F 29.6 °F 3.2 °F 28% 30.16 in 10.0 mi ESE 4.6 mph - N/A   Partly Cloudy
11:35 AM 35.6 °F 29.2 °F 6.8 °F 30% 30.16 in 10.0 mi NNE 8.1 mph - N/A   Partly Cloudy
11:55 AM 35.6 °F 32.8 °F 1.4 °F 24% 30.15 in 10.0 mi South 3.5 mph - N/A   Clear
12:15 PM 37.4 °F - 1.4 °F 22% 30.15 in 10.0 mi Calm Calm - N/A   Clear
12:35 PM 37.4 °F - -0.4 °F 20% 30.14 in 10.0 mi Calm Calm - N/A   Partly Cloudy
12:55 PM 37.4 °F 32.1 °F -2.2 °F 19% 30.14 in 10.0 mi ENE 6.9 mph - N/A   Clear
1:15 PM 37.4 °F - -0.4 °F 20% 30.13 in 10.0 mi Calm Calm - N/A   Clear
1:35 PM 41.0 °F 38.0 °F -0.4 °F 18% 30.14 in 10.0 mi SE 4.6 mph - N/A   Partly Cloudy
1:55 PM 39.2 °F 34.2 °F 1.4 °F 21% 30.13 in 10.0 mi NE 6.9 mph - N/A   Scattered Clouds
2:15 PM 39.2 °F 35.0 °F 1.4 °F 21% 30.11 in 10.0 mi North 5.8 mph - N/A   Partly Cloudy
2:35 PM 41.0 °F 35.2 °F 1.4 °F 19% 30.11 in 10.0 mi North 9.2 mph - N/A   Clear
2:55 PM 41.0 °F 36.4 °F 1.4 °F 19% 30.11 in 10.0 mi North 6.9 mph - N/A   Clear
3:15 PM 41.0 °F 33.9 °F 5.0 °F 23% 30.11 in 10.0 mi NNW 12.7 mph - N/A   Clear
3:35 PM 39.2 °F 32.5 °F 5.0 °F 24% 30.11 in 10.0 mi NNW 10.4 mph 19.6 mph N/A   Clear
3:55 PM 41.0 °F 32.8 °F 3.2 °F 21% 30.11 in 10.0 mi NW 16.1 mph 19.6 mph N/A   Clear
4:15 PM 39.2 °F 30.5 °F 5.0 °F 24% 30.11 in 10.0 mi NNW 16.1 mph 23.0 mph N/A   Clear
4:35 PM 39.2 °F 29.3 °F 6.8 °F 26% 30.12 in 10.0 mi NNW 20.7 mph 26.5 mph N/A   Clear
4:55 PM 39.2 °F 30.8 °F 6.8 °F 26% 30.12 in 10.0 mi NNW 15.0 mph 21.9 mph N/A   Clear
5:15 PM 37.4 °F 29.3 °F 8.6 °F 30% 30.13 in 10.0 mi NNW 12.7 mph 20.7 mph N/A   Clear
5:35 PM 37.4 °F 28.5 °F 8.6 °F 30% 30.12 in 10.0 mi NNW 15.0 mph - N/A   Clear
5:55 PM 37.4 °F 28.9 °F 8.6 °F 30% 30.12 in 10.0 mi NNW 13.8 mph - N/A   Clear
6:15 PM 37.4 °F 28.9 °F 8.6 °F 30% 30.12 in 10.0 mi NW 13.8 mph - N/A   Clear
6:35 PM 35.6 °F 26.2 °F 8.6 °F 33% 30.12 in 10.0 mi NW 15.0 mph 20.7 mph N/A   Clear
6:55 PM 35.6 °F 29.2 °F 10.4 °F 35% 30.13 in 10.0 mi NW 8.1 mph - N/A   Clear
7:15 PM 33.8 °F 25.3 °F 10.4 °F 38% 30.12 in 10.0 mi NW 11.5 mph - N/A   Clear
7:55 PM 32.0 °F - 10.4 °F 41% 30.13 in 10.0 mi Calm Calm - N/A   Clear
8:15 PM 32.0 °F 27.5 °F 12.2 °F 44% 30.14 in 10.0 mi SSE 4.6 mph - N/A   Scattered Clouds
8:35 PM 32.0 °F - 10.4 °F 41% 30.14 in 10.0 mi Calm Calm - N/A   Scattered Clouds
8:55 PM 28.4 °F - 12.2 °F 51% 30.14 in 10.0 mi Calm Calm - N/A   Clear
9:15 PM 28.4 °F 24.6 °F 12.2 °F 51% 30.14 in 10.0 mi East 3.5 mph - N/A   Clear
9:35 PM 26.6 °F 21.2 °F 10.4 °F 51% 30.14 in 10.0 mi ESE 4.6 mph - N/A   Clear
9:55 PM 24.8 °F 19.1 °F 10.4 °F 54% 30.14 in 10.0 mi SE 4.6 mph - N/A   Clear
10:15 PM 24.8 °F - 10.4 °F 54% 30.14 in 10.0 mi Calm Calm - N/A   Clear
10:55 PM 23.0 °F - 10.4 °F 59% 30.13 in 10.0 mi Calm Calm - N/A   Clear
11:15 PM 23.0 °F - 10.4 °F 59% 30.13 in 10.0 mi Calm Calm - N/A   Clear
11:35 PM 23.0 °F - 10.4 °F 59% 30.13 in 10.0 mi Calm Calm - N/A   Clear
11:55 PM 23.0 °F 17.0 °F 12.2 °F 63% 30.12 in 10.0 mi SSW 4.6 mph - N/A   Clear